Home > Weather > Choloma > Past weeks

Flag for Honduras Weather for the Past 2 Weeks in Choloma, Honduras

Now
66 °F

Passing clouds.


Feels Like: 66 °F
Forecast: 63 / 66 °F
Wind: 5 mph from Southwest

Location: La Mesa San Pedro Sula

Current Time: Feb 10, 2016 at 11:43:37 PM

Latest Report: Feb 10, 2016 at 11:00 PM


Visibility: N/A

Pressure: 30.27 "Hg

Humidity: 100%

Dew point: 66 °F

Location of CholomaLocation

Historic Weather in Choloma — Graph

°F

Choloma Temperature Yesterday

Maximum temperature yesterday: 68 °F (at 12:00 AM)
Minimum temperature yesterday: 64 °F (at 11:00 PM)
Average temperature yesterday: 67 °F

High & Low Weather Summary for the Past Weeks

 TemperatureHumidityPressure
High97 °F (Feb 3, 3:00 PM)100% (Jan 26, 10:00 PM)30.33 "Hg (Jan 26, 10:00 PM)
Low64 °F (Jan 30, 2:00 AM)36% (Feb 2, 3:00 PM)29.71 "Hg (Feb 2, 4:00 PM)
Average73 °F91%30.03 "Hg
* Reported Jan 26 10:00 PM — Feb 10 10:00 PM, Choloma, Weather by CustomWeather, © 2016

Note: Actual official high and low records may vary slightly from our data, if they occured in-between our weather recording intervals... More about our weather records

Advertising

Choloma Weather History for the Previous 24 Hours

 ConditionsComfort  
Time TempWeatherWind HumidityBarometerVisibility
10:00 PM
Wed, Feb 10
66 °FPassing clouds.5 mph100%30.30 "HgN/A
9:00 PM66 °FDrizzle. Mostly cloudy.10 mph100%30.30 "HgN/A
8:00 PM68 °FPassing clouds.5 mph94%30.30 "HgN/A
7:00 PM68 °FPassing clouds.No wind94%30.27 "HgN/A
6:00 PM70 °FPartly cloudy.2 mph88%30.24 "HgN/A
5:00 PM70 °FBroken clouds.No wind83%30.24 "HgN/A
4:00 PM68 °FBroken clouds.No wind88%30.24 "HgN/A
2:00 PM70 °FMore clouds than sun.6 mph88%30.24 "HgN/A
1:00 PM68 °FMore clouds than sun.2 mph94%30.27 "HgN/A
12:00 PM68 °FMore clouds than sun.5 mph94%30.30 "HgN/A
11:00 AM70 °FBroken clouds.3 mph83%30.30 "HgN/A
10:00 AM68 °FBroken clouds.3 mph94%30.33 "HgN/A
9:00 AM64 °FScattered showers. Broken clouds.3 mph100%30.33 "Hg4 mi
8:00 AM64 °FDrizzle. More clouds than sun.3 mph100%30.30 "Hg3 mi
7:00 AM64 °FMore clouds than sun.5 mph100%30.27 "Hg4 mi
6:00 AM64 °FPassing clouds.No wind100%30.24 "HgN/A
5:00 AM64 °FPartly cloudy.No wind100%30.21 "HgN/A
4:00 AM64 °FPartly cloudy.No wind100%30.21 "HgN/A
3:00 AM64 °FPartly cloudy.No wind100%30.21 "HgN/A
2:00 AM64 °FPartly cloudy.No wind100%30.21 "HgN/A
12:00 AM64 °FPartly cloudy.No wind100%30.27 "HgN/A
11:00 PM
Tue, Feb 9
64 °FPartly cloudy.No wind100%30.27 "HgN/A
Weather by CustomWeather, © 2016

See weather overviewHow to use our weather pages